Time,TemperatureF,DewpointF,PressureIn,WindDirection,WindDirectionDegrees,WindSpeedMPH,WindSpeedGustMPH,Humidity,HourlyPrecipIn,Conditions,Clouds,dailyrainin,SoftwareType,DateUTC
2013-10-06 00:00:00,40.4,37.0,29.87,ESE,117,4.0,8.0,88,0.00,,,0.00,weatherlink.com 1.10,2013-10-06 05:00:00,
2013-10-06 00:10:00,40.4,37.7,29.86,SSW,202,2.0,7.0,90,0.00,,---,0.00,VWS V14.01,2013-10-06 05:10:00,
2013-10-06 00:15:00,40.3,38.0,29.86,SSW,210,0.0,6.0,90,0.00,,,0.00,weatherlink.com 1.10,2013-10-06 05:15:00,
2013-10-06 00:20:00,40.3,37.6,29.86,SSW,202,2.0,6.0,90,0.00,,---,0.00,VWS V14.01,2013-10-06 05:20:00,
2013-10-06 00:30:00,40.4,38.0,29.86,West,264,0.0,6.0,90,0.00,,,0.00,weatherlink.com 1.10,2013-10-06 05:30:00,
2013-10-06 00:40:00,40.4,37.7,29.85,WSW,248,2.0,7.0,90,0.00,,---,0.00,VWS V14.01,2013-10-06 05:40:00,
2013-10-06 00:45:00,40.7,38.0,29.85,WSW,249,3.0,5.0,90,0.00,,,0.00,weatherlink.com 1.10,2013-10-06 05:45:00,
2013-10-06 00:50:00,40.7,38.0,29.85,West,270,2.0,6.0,90,0.00,,---,0.00,VWS V14.01,2013-10-06 05:50:00,
2013-10-06 01:00:00,41.0,38.0,29.85,NW,308,1.0,8.0,88,0.00,,,0.00,weatherlink.com 1.10,2013-10-06 06:00:00,
2013-10-06 01:10:00,41.1,37.8,29.85,WSW,248,3.0,10.0,88,0.00,,---,0.00,VWS V14.01,2013-10-06 06:10:00,
2013-10-06 01:15:00,41.2,38.0,29.85,East,83,1.0,10.0,87,0.00,,,0.00,weatherlink.com 1.10,2013-10-06 06:15:00,
2013-10-06 01:20:00,41.2,37.6,29.85,WSW,248,2.0,10.0,87,0.00,,---,0.00,VWS V14.01,2013-10-06 06:20:00,
2013-10-06 01:30:00,41.4,38.0,29.85,West,266,3.0,8.0,87,0.00,,,0.00,weatherlink.com 1.10,2013-10-06 06:30:00,
2013-10-06 01:40:00,41.4,38.1,29.85,WSW,248,2.0,8.0,88,0.00,,---,0.00,VWS V14.01,2013-10-06 06:40:00,
2013-10-06 01:45:00,41.4,38.0,29.85,SE,129,0.0,8.0,88,0.00,,,0.00,weatherlink.com 1.10,2013-10-06 06:45:00,
2013-10-06 01:50:00,41.4,38.1,29.85,West,270,2.0,8.0,88,0.00,,---,0.00,VWS V14.01,2013-10-06 06:50:00,
2013-10-06 02:00:00,41.4,38.0,29.85,ENE,64,2.0,7.0,89,0.00,,,0.00,weatherlink.com 1.10,2013-10-06 07:00:00,
2013-10-06 02:10:00,41.4,38.7,29.85,WSW,248,2.0,12.0,90,0.01,,---,0.01,VWS V14.01,2013-10-06 07:10:00,
2013-10-06 02:15:00,41.4,39.0,29.85,SSW,206,1.0,12.0,90,0.01,,,0.01,weatherlink.com 1.10,2013-10-06 07:15:00,
2013-10-06 02:20:00,41.4,39.0,29.85,SW,225,2.0,12.0,91,0.01,,---,0.01,VWS V14.01,2013-10-06 07:20:00,
2013-10-06 02:30:00,41.6,39.0,29.84,SW,219,4.0,9.0,91,0.01,,,0.01,weatherlink.com 1.10,2013-10-06 07:30:00,
2013-10-06 02:40:00,41.6,39.2,29.84,WSW,248,2.0,8.0,91,0.01,,---,0.01,VWS V14.01,2013-10-06 07:40:00,
2013-10-06 02:45:00,41.7,40.0,29.84,ESE,105,1.0,7.0,92,0.01,,,0.01,weatherlink.com 1.10,2013-10-06 07:45:00,
2013-10-06 02:50:00,41.7,39.5,29.84,ESE,112,1.0,7.0,92,0.01,,---,0.01,VWS V14.01,2013-10-06 07:50:00,
2013-10-06 03:00:00,42.0,40.0,29.85,NNE,32,0.0,4.0,92,0.01,,,0.01,weatherlink.com 1.10,2013-10-06 08:00:00,
2013-10-06 03:10:00,42.1,39.7,29.85,East,90,1.0,8.0,91,0.01,,---,0.01,VWS V14.01,2013-10-06 08:10:00,
2013-10-06 03:15:00,42.2,40.0,29.85,ESE,108,7.0,7.0,91,0.00,,,0.01,weatherlink.com 1.10,2013-10-06 08:15:00,
2013-10-06 03:20:00,42.2,39.8,29.85,East,90,2.0,7.0,91,0.00,,---,0.01,VWS V14.01,2013-10-06 08:20:00,
2013-10-06 03:30:00,42.3,40.0,29.85,NW,306,2.0,9.0,90,0.00,,,0.01,weatherlink.com 1.10,2013-10-06 08:30:00,
2013-10-06 03:40:00,42.4,39.4,29.85,ESE,112,3.0,11.0,89,0.00,,---,0.01,VWS V14.01,2013-10-06 08:40:00,
2013-10-06 03:45:00,42.3,39.0,29.86,ENE,60,3.0,11.0,89,0.00,,,0.01,weatherlink.com 1.10,2013-10-06 08:45:00,
2013-10-06 03:50:00,42.4,39.4,29.86,ESE,112,3.0,12.0,89,0.00,,---,0.01,VWS V14.01,2013-10-06 08:50:00,
2013-10-06 04:00:00,42.1,39.0,29.86,WSW,256,3.0,13.0,88,0.00,,,0.01,weatherlink.com 1.10,2013-10-06 09:00:00,
2013-10-06 04:10:00,42.0,38.7,29.87,SE,135,3.0,12.0,88,0.00,,---,0.01,VWS V14.01,2013-10-06 09:10:00,
2013-10-06 04:15:00,41.7,38.0,29.87,ENE,66,6.0,15.0,88,0.00,,,0.01,weatherlink.com 1.10,2013-10-06 09:15:00,
2013-10-06 04:20:00,41.7,38.4,29.87,North,0,5.0,15.0,88,0.00,,---,0.01,VWS V14.01,2013-10-06 09:20:00,
2013-10-06 04:30:00,41.8,39.0,29.88,ENE,67,4.0,13.0,88,0.00,,,0.01,weatherlink.com 1.10,2013-10-06 09:30:00,
2013-10-06 04:40:00,41.9,38.6,29.88,NE,45,3.0,13.0,88,0.00,,---,0.01,VWS V14.01,2013-10-06 09:40:00,
2013-10-06 04:45:00,42.1,39.0,29.88,ENE,70,4.0,13.0,89,0.00,,,0.01,weatherlink.com 1.10,2013-10-06 09:45:00,
2013-10-06 04:50:00,42.1,39.1,29.88,ESE,112,2.0,11.0,89,0.00,,---,0.01,VWS V14.01,2013-10-06 09:50:00,
2013-10-06 05:00:00,42.2,40.0,29.88,South,169,2.0,10.0,90,0.00,,,0.01,weatherlink.com 1.10,2013-10-06 10:00:00,
2013-10-06 05:10:00,42.2,39.5,29.88,North,0,2.0,10.0,90,0.00,,---,0.01,VWS V14.01,2013-10-06 10:10:00,
2013-10-06 05:15:00,42.2,40.0,29.88,SE,132,1.0,9.0,90,0.00,,,0.01,weatherlink.com 1.10,2013-10-06 10:15:00,
2013-10-06 05:20:00,42.2,39.5,29.88,ESE,112,1.0,9.0,90,0.00,,---,0.01,VWS V14.01,2013-10-06 10:20:00,
2013-10-06 05:30:00,42.4,40.0,29.88,ESE,118,0.0,12.0,90,0.00,,,0.01,weatherlink.com 1.10,2013-10-06 10:30:00,
2013-10-06 05:40:00,42.4,39.7,29.88,East,90,1.0,4.0,90,0.00,,---,0.01,VWS V14.01,2013-10-06 10:40:00,
2013-10-06 05:45:00,42.5,40.0,29.88,ESE,107,2.0,4.0,90,0.00,,,0.01,weatherlink.com 1.10,2013-10-06 10:45:00,
2013-10-06 05:50:00,42.5,39.8,29.88,ESE,112,1.0,4.0,90,0.00,,---,0.01,VWS V14.01,2013-10-06 10:50:00,
2013-10-06 06:00:00,42.8,40.0,29.88,South,181,0.0,5.0,90,0.00,,,0.01,weatherlink.com 1.10,2013-10-06 11:00:00,
2013-10-06 06:10:00,42.9,40.2,29.88,ESE,112,1.0,11.0,90,0.00,,---,0.01,VWS V14.01,2013-10-06 11:10:00,
2013-10-06 06:15:00,43.2,41.0,29.89,East,101,0.0,3.0,90,0.00,,,0.01,weatherlink.com 1.10,2013-10-06 11:15:00,
2013-10-06 06:20:00,43.1,40.4,29.89,East,90,1.0,6.0,90,0.00,,---,0.01,VWS V14.01,2013-10-06 11:20:00,
2013-10-06 06:30:00,43.5,41.0,29.89,ESE,104,4.0,11.0,90,0.00,,,0.01,weatherlink.com 1.10,2013-10-06 11:30:00,
2013-10-06 06:40:00,43.6,40.9,29.90,ESE,112,1.0,5.0,90,0.00,,---,0.01,VWS V14.01,2013-10-06 11:40:00,
2013-10-06 06:45:00,43.9,41.0,29.90,NNE,14,3.0,10.0,90,0.00,,,0.01,weatherlink.com 1.10,2013-10-06 11:45:00,
2013-10-06 06:50:00,43.8,41.1,29.90,ESE,112,2.0,10.0,90,0.00,,---,0.01,VWS V14.01,2013-10-06 11:50:00,
2013-10-06 07:00:00,43.9,41.2,29.90,ESE,112,1.0,5.0,90,0.00,,---,0.01,VWS V14.01,2013-10-06 12:00:00,
2013-10-06 07:01:00,43.9,41.0,29.91,ESE,122,1.0,5.0,90,0.00,,,0.01,weatherlink.com 1.10,2013-10-06 12:01:00,
2013-10-06 07:10:00,44.0,41.0,29.91,ESE,112,2.0,11.0,89,0.00,,---,0.01,VWS V14.01,2013-10-06 12:10:00,
2013-10-06 07:16:00,44.0,41.0,29.91,East,101,1.0,9.0,89,0.00,,,0.01,weatherlink.com 1.10,2013-10-06 12:16:00,
2013-10-06 07:20:00,44.0,41.0,29.91,East,90,2.0,8.0,89,0.00,,---,0.01,VWS V14.01,2013-10-06 12:20:00,
2013-10-06 07:30:00,43.9,40.6,29.91,East,90,2.0,13.0,88,0.00,,---,0.01,VWS V14.01,2013-10-06 12:30:00,
2013-10-06 07:31:00,43.9,41.0,29.91,East,87,1.0,13.0,88,0.00,,,0.01,weatherlink.com 1.10,2013-10-06 12:31:00,
2013-10-06 07:40:00,43.8,40.5,29.91,ESE,112,3.0,10.0,88,0.00,,---,0.01,VWS V14.01,2013-10-06 12:40:00,
2013-10-06 07:46:00,43.6,41.0,29.91,SE,130,4.0,9.0,89,0.00,,,0.01,weatherlink.com 1.10,2013-10-06 12:46:00,
2013-10-06 07:50:00,43.7,40.7,29.91,ESE,112,2.0,9.0,89,0.00,,---,0.01,VWS V14.01,2013-10-06 12:50:00,
2013-10-06 08:00:00,43.5,40.8,29.92,ESE,112,1.0,6.0,90,0.01,,---,0.02,VWS V14.01,2013-10-06 13:00:00,
2013-10-06 08:01:00,43.5,41.0,29.92,SE,131,2.0,6.0,90,0.01,,,0.02,weatherlink.com 1.10,2013-10-06 13:01:00,
2013-10-06 08:10:00,43.4,40.7,29.92,ESE,112,1.0,5.0,90,0.01,,---,0.02,VWS V14.01,2013-10-06 13:10:00,
2013-10-06 08:16:00,43.4,41.0,29.92,ESE,105,1.0,7.0,91,0.01,,,0.02,weatherlink.com 1.10,2013-10-06 13:16:00,
2013-10-06 08:20:00,43.4,41.0,29.92,ESE,112,1.0,7.0,91,0.01,,---,0.02,VWS V14.01,2013-10-06 13:20:00,
2013-10-06 08:30:00,43.5,41.0,29.92,East,90,1.0,5.0,91,0.01,,---,0.02,VWS V14.01,2013-10-06 13:30:00,
2013-10-06 08:31:00,43.8,41.0,29.92,SE,127,1.0,3.0,91,0.01,,,0.02,weatherlink.com 1.10,2013-10-06 13:31:00,
2013-10-06 08:40:00,44.0,41.5,29.93,ESE,112,1.0,5.0,91,0.01,,---,0.02,VWS V14.01,2013-10-06 13:40:00,
2013-10-06 08:46:00,44.3,42.0,29.93,WNW,285,2.0,4.0,91,0.01,,,0.02,weatherlink.com 1.10,2013-10-06 13:46:00,
2013-10-06 08:50:00,44.3,41.8,29.93,East,90,1.0,4.0,91,0.02,,---,0.03,VWS V14.01,2013-10-06 13:50:00,
2013-10-06 09:00:00,44.2,42.0,29.93,East,90,1.0,4.0,92,0.02,,---,0.03,VWS V14.01,2013-10-06 14:00:00,
2013-10-06 09:01:00,44.3,42.0,29.93,East,88,1.0,4.0,92,0.01,,,0.03,weatherlink.com 1.10,2013-10-06 14:01:00,
2013-10-06 09:10:00,44.3,42.1,29.93,East,90,1.0,3.0,92,0.01,,---,0.03,VWS V14.01,2013-10-06 14:10:00,
2013-10-06 09:16:00,44.7,43.0,29.93,SSW,203,1.0,3.0,92,0.01,,,0.03,weatherlink.com 1.10,2013-10-06 14:16:00,
2013-10-06 09:20:00,44.6,42.4,29.93,East,90,1.0,3.0,92,0.01,,---,0.03,VWS V14.01,2013-10-06 14:20:00,
2013-10-06 09:30:00,45.0,42.8,29.93,East,90,1.0,4.0,92,0.01,,---,0.03,VWS V14.01,2013-10-06 14:30:00,
2013-10-06 09:31:00,45.2,43.0,29.93,East,93,1.0,6.0,92,0.01,,,0.03,weatherlink.com 1.10,2013-10-06 14:31:00,
2013-10-06 09:40:00,45.4,43.2,29.92,East,90,1.0,6.0,92,0.01,,---,0.03,VWS V14.01,2013-10-06 14:40:00,
2013-10-06 09:46:00,45.7,43.0,29.92,NE,48,2.0,6.0,91,0.01,,,0.03,weatherlink.com 1.10,2013-10-06 14:46:00,
2013-10-06 09:50:00,45.7,43.2,29.92,East,90,2.0,6.0,91,0.01,,---,0.03,VWS V14.01,2013-10-06 14:50:00,
2013-10-06 10:00:00,46.1,43.6,29.93,ESE,112,2.0,5.0,91,0.00,,---,0.03,VWS V14.01,2013-10-06 15:00:00,
2013-10-06 10:01:00,46.5,44.0,29.93,SW,229,3.0,5.0,91,0.00,,,0.03,weatherlink.com 1.10,2013-10-06 15:01:00,
2013-10-06 10:10:00,46.7,43.9,29.93,ESE,112,1.0,5.0,90,0.00,,---,0.03,VWS V14.01,2013-10-06 15:10:00,
2013-10-06 10:16:00,47.2,45.0,29.93,South,172,1.0,8.0,90,0.00,,,0.03,weatherlink.com 1.10,2013-10-06 15:16:00,
2013-10-06 10:20:00,47.1,44.3,29.93,ESE,112,2.0,8.0,90,0.00,,---,0.03,VWS V14.01,2013-10-06 15:20:00,
2013-10-06 10:30:00,47.3,44.2,29.93,ESE,112,2.0,8.0,89,0.00,,---,0.03,VWS V14.01,2013-10-06 15:30:00,
2013-10-06 10:31:00,47.5,45.0,29.93,NNW,347,0.0,8.0,89,0.00,,,0.03,weatherlink.com 1.10,2013-10-06 15:31:00,
2013-10-06 10:40:00,47.5,44.4,29.93,SE,135,2.0,7.0,89,0.00,,---,0.03,VWS V14.01,2013-10-06 15:40:00,
2013-10-06 10:46:00,47.6,45.0,29.93,NW,321,1.0,7.0,90,0.00,,,0.03,weatherlink.com 1.10,2013-10-06 15:46:00,
2013-10-06 10:50:00,47.5,45.0,29.93,ESE,112,2.0,7.0,91,0.00,,---,0.03,VWS V14.01,2013-10-06 15:50:00,
2013-10-06 11:00:00,47.6,45.1,29.94,ESE,112,2.0,10.0,91,0.00,,---,0.03,VWS V14.01,2013-10-06 16:00:00,
2013-10-06 11:01:00,47.5,45.0,29.93,SE,127,1.0,10.0,92,0.00,,,0.03,weatherlink.com 1.10,2013-10-06 16:01:00,
2013-10-06 11:10:00,47.5,45.3,29.93,ESE,112,2.0,10.0,92,0.00,,---,0.03,VWS V14.01,2013-10-06 16:10:00,
2013-10-06 11:16:00,47.5,46.0,29.94,South,169,2.0,6.0,93,0.00,,,0.03,weatherlink.com 1.10,2013-10-06 16:16:00,
2013-10-06 11:20:00,47.5,45.6,29.94,ESE,112,2.0,6.0,93,0.00,,---,0.03,VWS V14.01,2013-10-06 16:20:00,
2013-10-06 11:30:00,47.3,45.4,29.94,ESE,112,2.0,9.0,93,0.00,,---,0.03,VWS V14.01,2013-10-06 16:30:00,
2013-10-06 11:31:00,47.1,45.0,29.94,SSE,150,0.0,9.0,93,0.01,,,0.04,weatherlink.com 1.10,2013-10-06 16:31:00,
2013-10-06 11:40:00,47.0,44.8,29.94,ESE,112,2.0,9.0,92,0.01,,---,0.04,VWS V14.01,2013-10-06 16:40:00,
2013-10-06 11:46:00,46.8,45.0,29.94,SSW,195,1.0,9.0,93,0.01,,,0.04,weatherlink.com 1.10,2013-10-06 16:46:00,
2013-10-06 11:50:00,46.8,44.9,29.95,East,90,3.0,12.0,93,0.01,,---,0.04,VWS V14.01,2013-10-06 16:50:00,
2013-10-06 12:00:00,46.8,44.9,29.95,ESE,112,3.0,11.0,93,0.01,,---,0.04,VWS V14.01,2013-10-06 17:00:00,
2013-10-06 12:01:00,46.7,45.0,29.95,SE,127,2.0,10.0,93,0.01,,,0.04,weatherlink.com 1.10,2013-10-06 17:01:00,
2013-10-06 12:10:00,46.7,44.8,29.95,ESE,112,2.0,10.0,93,0.01,,---,0.04,VWS V14.01,2013-10-06 17:10:00,
2013-10-06 12:16:00,46.6,44.0,29.95,South,181,3.0,10.0,92,0.01,,,0.04,weatherlink.com 1.10,2013-10-06 17:16:00,
2013-10-06 12:20:00,46.6,44.4,29.94,ESE,112,3.0,10.0,92,0.01,,---,0.04,VWS V14.01,2013-10-06 17:20:00,
2013-10-06 12:30:00,46.7,44.5,29.94,ESE,112,1.0,7.0,92,0.01,,---,0.04,VWS V14.01,2013-10-06 17:30:00,
2013-10-06 12:31:00,46.9,45.0,29.95,East,79,1.0,7.0,91,0.00,,,0.04,weatherlink.com 1.10,2013-10-06 17:31:00,
2013-10-06 12:40:00,47.0,44.2,29.95,East,90,3.0,10.0,90,0.01,,---,0.04,VWS V14.01,2013-10-06 17:40:00,
2013-10-06 12:46:00,47.2,44.0,29.96,ESE,120,1.0,10.0,89,0.00,,,0.04,weatherlink.com 1.10,2013-10-06 17:46:00,
2013-10-06 12:50:00,47.2,43.8,29.95,East,90,2.0,10.0,88,0.00,,---,0.04,VWS V14.01,2013-10-06 17:50:00,
2013-10-06 13:00:00,47.4,44.0,29.95,ESE,112,2.0,8.0,88,0.00,,---,0.04,VWS V14.01,2013-10-06 18:00:00,
2013-10-06 13:01:00,47.6,44.0,29.95,WSW,246,6.0,8.0,88,0.00,,,0.04,weatherlink.com 1.10,2013-10-06 18:01:00,
2013-10-06 13:10:00,47.6,44.2,29.95,ESE,112,2.0,8.0,88,0.00,,---,0.04,VWS V14.01,2013-10-06 18:10:00,
2013-10-06 13:16:00,47.7,44.0,29.95,NNW,332,4.0,10.0,87,0.00,,,0.04,weatherlink.com 1.10,2013-10-06 18:16:00,
2013-10-06 13:20:00,47.7,44.3,29.94,SE,135,2.0,10.0,88,0.00,,---,0.04,VWS V14.01,2013-10-06 18:20:00,
2013-10-06 13:30:00,47.7,44.6,29.95,ESE,112,3.0,13.0,89,0.00,,---,0.04,VWS V14.01,2013-10-06 18:30:00,
2013-10-06 13:31:00,47.6,45.0,29.95,SE,125,1.0,8.0,89,0.01,,,0.05,weatherlink.com 1.10,2013-10-06 18:31:00,
2013-10-06 13:40:00,47.5,44.1,29.96,East,90,3.0,10.0,88,0.01,,---,0.05,VWS V14.01,2013-10-06 18:40:00,
2013-10-06 13:46:00,47.0,44.0,29.95,NE,37,4.0,11.0,89,0.01,,,0.05,weatherlink.com 1.10,2013-10-06 18:46:00,
2013-10-06 13:50:00,47.1,44.0,29.95,East,90,3.0,11.0,89,0.01,,---,0.05,VWS V14.01,2013-10-06 18:50:00,
2013-10-06 14:00:00,46.9,43.5,29.95,ESE,112,2.0,7.0,88,0.01,,---,0.05,VWS V14.01,2013-10-06 19:00:00,
2013-10-06 14:01:00,47.1,44.0,29.95,ESE,120,3.0,8.0,88,0.01,,,0.05,weatherlink.com 1.10,2013-10-06 19:01:00,
2013-10-06 14:10:00,47.0,43.6,29.95,East,90,3.0,9.0,88,0.01,,---,0.05,VWS V14.01,2013-10-06 19:10:00,
2013-10-06 14:16:00,47.1,44.0,29.95,WNW,302,3.0,9.0,88,0.01,,,0.05,weatherlink.com 1.10,2013-10-06 19:16:00,
2013-10-06 14:20:00,47.1,43.7,29.95,East,90,3.0,13.0,88,0.01,,---,0.05,VWS V14.01,2013-10-06 19:20:00,
2013-10-06 14:30:00,47.1,43.7,29.95,ESE,112,3.0,11.0,88,0.02,,---,0.06,VWS V14.01,2013-10-06 19:30:00,
2013-10-06 14:31:00,47.0,44.0,29.95,SE,131,0.0,10.0,88,0.01,,,0.06,weatherlink.com 1.10,2013-10-06 19:31:00,
2013-10-06 14:40:00,47.0,43.9,29.95,East,90,3.0,10.0,89,0.02,,---,0.06,VWS V14.01,2013-10-06 19:40:00,
2013-10-06 14:46:00,47.0,44.0,29.95,ESE,105,2.0,9.0,89,0.01,,,0.06,weatherlink.com 1.10,2013-10-06 19:46:00,
2013-10-06 14:50:00,47.0,43.9,29.96,ESE,112,3.0,10.0,89,0.01,,---,0.06,VWS V14.01,2013-10-06 19:50:00,
2013-10-06 15:00:00,46.8,43.7,29.96,ESE,112,4.0,12.0,89,0.01,,---,0.06,VWS V14.01,2013-10-06 20:00:00,
2013-10-06 15:01:00,46.5,44.0,29.96,SW,220,5.0,12.0,89,0.01,,,0.06,weatherlink.com 1.10,2013-10-06 20:01:00,
2013-10-06 15:10:00,46.5,43.7,29.96,ESE,112,3.0,11.0,90,0.02,,---,0.07,VWS V14.01,2013-10-06 20:10:00,
2013-10-06 15:16:00,46.4,44.0,29.96,NNE,20,6.0,13.0,91,0.02,,,0.07,weatherlink.com 1.10,2013-10-06 20:16:00,
2013-10-06 15:20:00,46.4,43.9,29.96,ESE,112,4.0,13.0,91,0.02,,---,0.07,VWS V14.01,2013-10-06 20:20:00,
2013-10-06 15:30:00,46.4,44.2,29.96,ESE,112,3.0,9.0,92,0.02,,---,0.07,VWS V14.01,2013-10-06 20:30:00,
2013-10-06 15:31:00,46.5,44.0,29.97,ENE,60,3.0,14.0,92,0.01,,,0.07,weatherlink.com 1.10,2013-10-06 20:31:00,
2013-10-06 15:40:00,46.6,44.4,29.97,SE,135,3.0,14.0,92,0.01,,---,0.07,VWS V14.01,2013-10-06 20:40:00,
2013-10-06 15:46:00,46.5,44.0,29.97,SSE,158,1.0,10.0,92,0.01,,,0.07,weatherlink.com 1.10,2013-10-06 20:46:00,
2013-10-06 15:50:00,46.5,44.3,29.97,ESE,112,3.0,10.0,92,0.01,,---,0.07,VWS V14.01,2013-10-06 20:50:00,
2013-10-06 16:00:00,46.5,44.3,29.97,SE,135,2.0,7.0,92,0.01,,---,0.07,VWS V14.01,2013-10-06 21:00:00,
2013-10-06 16:01:00,46.6,44.0,29.97,ENE,78,3.0,7.0,92,0.01,,,0.07,weatherlink.com 1.10,2013-10-06 21:01:00,
2013-10-06 16:10:00,46.7,44.5,29.98,ESE,112,2.0,12.0,92,0.01,,---,0.07,VWS V14.01,2013-10-06 21:10:00,
2013-10-06 16:16:00,47.1,45.0,29.98,NNW,344,10.0,10.0,92,0.00,,,0.07,weatherlink.com 1.10,2013-10-06 21:16:00,
2013-10-06 16:20:00,47.0,44.8,29.97,ESE,112,3.0,11.0,92,0.00,,---,0.07,VWS V14.01,2013-10-06 21:20:00,
2013-10-06 16:30:00,47.1,44.9,29.98,East,90,3.0,14.0,92,0.00,,---,0.07,VWS V14.01,2013-10-06 21:30:00,
2013-10-06 16:31:00,47.3,45.0,29.98,ENE,68,8.0,14.0,92,0.00,,,0.07,weatherlink.com 1.10,2013-10-06 21:31:00,
2013-10-06 16:40:00,47.3,45.1,29.98,East,90,3.0,8.0,92,0.00,,---,0.07,VWS V14.01,2013-10-06 21:40:00,
2013-10-06 16:46:00,47.3,45.0,29.97,ESE,117,0.0,12.0,91,0.00,,,0.07,weatherlink.com 1.10,2013-10-06 21:46:00,
2013-10-06 16:50:00,47.4,45.2,29.98,ESE,112,3.0,12.0,92,0.00,,---,0.07,VWS V14.01,2013-10-06 21:50:00,
2013-10-06 17:00:00,47.4,44.9,29.99,ESE,112,2.0,6.0,91,0.00,,---,0.07,VWS V14.01,2013-10-06 22:00:00,
2013-10-06 17:01:00,47.5,45.0,29.98,ENE,77,3.0,8.0,91,0.00,,,0.07,weatherlink.com 1.10,2013-10-06 22:01:00,
2013-10-06 17:10:00,47.5,45.0,29.99,East,90,1.0,8.0,91,0.00,,---,0.07,VWS V14.01,2013-10-06 22:10:00,
2013-10-06 17:17:00,47.8,45.0,29.98,East,91,1.0,6.0,91,0.00,,,0.07,weatherlink.com 1.10,2013-10-06 22:17:00,
2013-10-06 17:20:00,47.8,45.3,29.99,North,0,2.0,6.0,91,0.00,,---,0.07,VWS V14.01,2013-10-06 22:20:00,
2013-10-06 17:30:00,48.0,45.2,29.99,NNE,22,1.0,5.0,90,0.00,,---,0.07,VWS V14.01,2013-10-06 22:30:00,
2013-10-06 17:32:00,48.1,45.0,29.99,SSE,152,0.0,5.0,90,0.00,,,0.07,weatherlink.com 1.10,2013-10-06 22:32:00,
2013-10-06 17:40:00,48.2,45.1,29.99,NNE,22,2.0,8.0,89,0.00,,---,0.07,VWS V14.01,2013-10-06 22:40:00,
2013-10-06 17:47:00,48.3,45.0,30.00,South,187,2.0,6.0,89,0.00,,,0.07,weatherlink.com 1.10,2013-10-06 22:47:00,
2013-10-06 17:50:00,48.3,45.2,30.00,North,0,2.0,6.0,89,0.00,,---,0.07,VWS V14.01,2013-10-06 22:50:00,
2013-10-06 18:00:00,48.4,45.3,30.00,East,90,1.0,5.0,89,0.00,,---,0.07,VWS V14.01,2013-10-06 23:00:00,
2013-10-06 18:02:00,48.5,46.0,30.00,East,93,0.0,6.0,89,0.00,,,0.07,weatherlink.com 1.10,2013-10-06 23:02:00,
2013-10-06 18:10:00,48.5,45.1,30.00,NNE,22,1.0,6.0,88,0.00,,---,0.07,VWS V14.01,2013-10-06 23:10:00,
2013-10-06 18:17:00,48.6,45.0,30.00,SE,130,1.0,6.0,88,0.00,,,0.07,weatherlink.com 1.10,2013-10-06 23:17:00,
2013-10-06 18:20:00,48.6,45.2,30.00,North,0,1.0,4.0,88,0.00,,---,0.07,VWS V14.01,2013-10-06 23:20:00,
2013-10-06 18:30:00,48.7,45.3,30.00,East,90,1.0,5.0,88,0.00,,---,0.07,VWS V14.01,2013-10-06 23:30:00,
2013-10-06 18:32:00,48.8,45.0,30.00,East,97,0.0,5.0,88,0.00,,,0.07,weatherlink.com 1.10,2013-10-06 23:32:00,
2013-10-06 18:40:00,48.8,45.4,30.00,East,90,1.0,4.0,88,0.00,,---,0.07,VWS V14.01,2013-10-06 23:40:00,
2013-10-06 18:47:00,49.0,46.0,30.01,North,4,0.0,2.0,88,0.00,,,0.07,weatherlink.com 1.10,2013-10-06 23:47:00,
2013-10-06 18:50:00,49.0,45.6,30.01,ESE,112,0.0,2.0,88,0.00,,---,0.07,VWS V14.01,2013-10-06 23:50:00,
2013-10-06 19:00:00,48.8,45.4,30.01,NNE,22,0.0,1.0,88,0.00,,---,0.07,VWS V14.01,2013-10-07 00:00:00,
2013-10-06 19:02:00,48.7,45.0,30.02,ENE,58,0.0,1.0,88,0.00,,,0.07,weatherlink.com 1.10,2013-10-07 00:02:00,
2013-10-06 19:10:00,48.7,45.3,30.01,NE,45,0.0,1.0,88,0.00,,---,0.07,VWS V14.01,2013-10-07 00:10:00,
2013-10-06 19:17:00,48.0,45.0,30.02,SW,220,0.0,2.0,88,0.00,,,0.07,weatherlink.com 1.10,2013-10-07 00:17:00,
2013-10-06 19:20:00,48.2,44.8,30.02,SW,225,0.0,2.0,88,0.00,,---,0.07,VWS V14.01,2013-10-07 00:20:00,
2013-10-06 19:30:00,47.6,44.5,30.02,SW,225,0.0,2.0,89,0.00,,---,0.07,VWS V14.01,2013-10-07 00:30:00,
2013-10-06 19:32:00,47.2,44.0,30.02,WSW,252,0.0,2.0,89,0.00,,,0.07,weatherlink.com 1.10,2013-10-07 00:32:00,
2013-10-06 19:40:00,47.1,44.0,30.02,WSW,248,0.0,1.0,89,0.00,,---,0.07,VWS V14.01,2013-10-07 00:40:00,
2013-10-06 19:47:00,46.8,44.0,30.03,WSW,251,0.0,1.0,89,0.00,,,0.07,weatherlink.com 1.10,2013-10-07 00:47:00,
2013-10-06 19:50:00,46.8,43.7,30.03,SW,225,0.0,1.0,89,0.00,,---,0.07,VWS V14.01,2013-10-07 00:50:00,
2013-10-06 20:00:00,46.6,43.8,30.03,North,0,0.0,1.0,90,0.00,,---,0.07,VWS V14.01,2013-10-07 01:00:00,
2013-10-06 20:02:00,46.5,44.0,30.03,East,85,0.0,1.0,90,0.00,,,0.07,weatherlink.com 1.10,2013-10-07 01:02:00,
2013-10-06 20:10:00,46.5,43.7,30.03,East,90,0.0,1.0,90,0.00,,---,0.07,VWS V14.01,2013-10-07 01:10:00,
2013-10-06 20:17:00,46.4,43.0,30.03,ESE,112,0.0,1.0,89,0.00,,,0.07,weatherlink.com 1.10,2013-10-07 01:17:00,
2013-10-06 20:20:00,46.4,43.3,30.03,ESE,112,0.0,1.0,89,0.00,,---,0.07,VWS V14.01,2013-10-07 01:20:00,
2013-10-06 20:30:00,46.4,43.0,30.03,ESE,112,0.0,1.0,88,0.00,,---,0.07,VWS V14.01,2013-10-07 01:30:00,
2013-10-06 20:32:00,46.7,43.0,30.03,North,359,0.0,1.0,87,0.00,,,0.07,weatherlink.com 1.10,2013-10-07 01:32:00,
2013-10-06 20:40:00,46.8,42.2,30.04,East,90,0.0,2.0,84,0.00,,---,0.07,VWS V14.01,2013-10-07 01:40:00,
2013-10-06 20:47:00,47.5,42.0,30.04,SSE,153,0.0,2.0,81,0.00,,,0.07,weatherlink.com 1.10,2013-10-07 01:47:00,
2013-10-06 20:50:00,47.3,41.5,30.04,ESE,112,0.0,2.0,80,0.00,,---,0.07,VWS V14.01,2013-10-07 01:50:00,
2013-10-06 21:00:00,47.5,41.0,30.04,ESE,112,1.0,4.0,78,0.00,,---,0.07,VWS V14.01,2013-10-07 02:00:00,
2013-10-06 21:02:00,47.6,41.0,30.04,East,93,0.0,4.0,77,0.00,,,0.07,weatherlink.com 1.10,2013-10-07 02:02:00,
2013-10-06 21:10:00,47.7,39.8,30.05,East,90,1.0,8.0,74,0.00,,---,0.07,VWS V14.01,2013-10-07 02:10:00,
2013-10-06 21:17:00,47.8,40.0,30.05,SE,131,1.0,4.0,73,0.00,,,0.07,weatherlink.com 1.10,2013-10-07 02:17:00,
2013-10-06 21:20:00,47.8,39.6,30.05,ESE,112,1.0,6.0,73,0.00,,---,0.07,VWS V14.01,2013-10-07 02:20:00,
2013-10-06 21:30:00,47.7,39.5,30.06,ESE,112,1.0,5.0,73,0.00,,---,0.07,VWS V14.01,2013-10-07 02:30:00,
2013-10-06 21:32:00,47.5,39.0,30.06,NE,41,0.0,5.0,73,0.00,,,0.07,weatherlink.com 1.10,2013-10-07 02:32:00,
2013-10-06 21:40:00,47.4,39.2,30.06,East,90,1.0,4.0,73,0.00,,---,0.07,VWS V14.01,2013-10-07 02:40:00,
2013-10-06 21:47:00,47.1,39.0,30.06,ESE,120,0.0,3.0,73,0.00,,,0.07,weatherlink.com 1.10,2013-10-07 02:47:00,
2013-10-06 21:50:00,47.2,39.0,30.06,ESE,112,0.0,3.0,73,0.00,,---,0.07,VWS V14.01,2013-10-07 02:50:00,
2013-10-06 22:00:00,46.8,38.6,30.07,East,90,0.0,2.0,73,0.00,,---,0.07,VWS V14.01,2013-10-07 03:00:00,
2013-10-06 22:02:00,46.7,38.0,30.07,East,96,1.0,3.0,73,0.00,,,0.07,weatherlink.com 1.10,2013-10-07 03:02:00,
2013-10-06 22:10:00,46.7,38.2,30.07,East,90,0.0,3.0,72,0.00,,---,0.07,VWS V14.01,2013-10-07 03:10:00,
2013-10-06 22:17:00,46.8,38.0,30.07,NNE,23,4.0,5.0,72,0.00,,,0.07,weatherlink.com 1.10,2013-10-07 03:17:00,
2013-10-06 22:20:00,46.8,38.3,30.07,East,90,1.0,5.0,72,0.00,,---,0.07,VWS V14.01,2013-10-07 03:20:00,
2013-10-06 22:30:00,47.0,38.1,30.07,ESE,112,1.0,6.0,71,0.00,,---,0.07,VWS V14.01,2013-10-07 03:30:00,
2013-10-06 22:32:00,47.3,38.0,30.07,ESE,118,1.0,7.0,71,0.00,,,0.07,weatherlink.com 1.10,2013-10-07 03:32:00,
2013-10-06 22:40:00,47.3,38.4,30.08,East,90,1.0,7.0,71,0.00,,---,0.07,VWS V14.01,2013-10-07 03:40:00,
2013-10-06 22:47:00,47.1,38.0,30.07,ESE,121,1.0,6.0,71,0.00,,,0.07,weatherlink.com 1.10,2013-10-07 03:47:00,
2013-10-06 22:50:00,47.1,38.2,30.08,ESE,112,1.0,6.0,71,0.00,,---,0.07,VWS V14.01,2013-10-07 03:50:00,
2013-10-06 23:00:00,46.8,38.3,30.08,East,90,1.0,3.0,72,0.00,,---,0.07,VWS V14.01,2013-10-07 04:00:00,
2013-10-06 23:02:00,46.5,38.0,30.08,SW,214,0.0,3.0,72,0.00,,,0.07,weatherlink.com 1.10,2013-10-07 04:02:00,
2013-10-06 23:10:00,46.4,38.2,30.08,East,90,1.0,5.0,73,0.00,,---,0.07,VWS V14.01,2013-10-07 04:10:00,
2013-10-06 23:17:00,46.0,38.0,30.08,SE,124,0.0,4.0,73,0.00,,,0.07,weatherlink.com 1.10,2013-10-07 04:17:00,
2013-10-06 23:20:00,46.1,37.9,30.08,North,0,0.0,4.0,73,0.00,,---,0.07,VWS V14.01,2013-10-07 04:20:00,
2013-10-06 23:30:00,45.8,37.7,30.08,North,0,1.0,5.0,73,0.00,,---,0.07,VWS V14.01,2013-10-07 04:30:00,
2013-10-06 23:32:00,46.0,38.0,30.08,NNW,344,0.0,5.0,73,0.00,,,0.07,weatherlink.com 1.10,2013-10-07 04:32:00,
2013-10-06 23:40:00,46.0,37.8,30.08,North,0,1.0,4.0,73,0.00,,---,0.07,VWS V14.01,2013-10-07 04:40:00,
2013-10-06 23:47:00,46.2,38.0,30.08,SSE,148,0.0,6.0,72,0.00,,,0.07,weatherlink.com 1.10,2013-10-07 04:47:00,
2013-10-06 23:50:00,46.2,38.0,30.08,North,0,1.0,6.0,73,0.00,,---,0.07,VWS V14.01,2013-10-07 04:50:00,